Location: Yellowknife
(62.4500°N, 114.3500°W)
Time: 08:36:24
(UTC-06:00)

Amateur Radio Satellites - All Passes

Search period start: 24 July 2014 08:06
Search period end: 25 July 2014 08:06
Location: Yellowknife, 62.4500°N, 114.3500°W

Satellite Date Start Highest point End Downlink Frequencies (MHz)
Time Altitude Azimuth
Sapphire 24 Jul 08:11:53 08:17:15 55° 9° (N) 08:22:36 437.095 MHz 1200 baud AX-25 AFSK
SO-67 24 Jul 08:15:50 08:18:45 24° 92° (E) 08:21:39 435.3500 MHz FM
STRAND 1 24 Jul 08:20:18 08:24:51 31° 268° (W) 08:29:25 ?
HO-68 24 Jul 08:29:57 08:32:20 12° 69° (ENE) 08:34:43 435.675 MHz FM
PCSat 24 Jul 08:46:06 08:51:31 62° 18° (NNE) 08:56:56 145.825 MHz
TMSAT-1 24 Jul 08:49:45 08:52:26 14° 335° (NNW) 08:55:07 436.925 FM
Hamsat 24 Jul 08:56:34 09:00:41 49° 297° (WNW) 09:04:50 145.90 MHz
JAS-1B 24 Jul 08:57:41 09:05:38 30° 343° (NNW) 09:13:26 435.800 - 435.900 CW/SSB
ITAMSAT 1 24 Jul 09:00:39 09:01:34 10° 352° (N) 09:02:30 435.822 SSB
Gurwin Techsat 1B 24 Jul 09:10:55 09:12:48 12° 344° (NNW) 09:14:40 435.225 FM
MaSat-1 24 Jul 09:13:44 09:17:50 23° 250° (WSW) 09:21:57 437.345 MHz
AO-27 24 Jul 09:18:30 09:19:02 10° 356° (N) 09:19:35 436.795 MHz FM
JAS-2 24 Jul 09:31:55 09:38:37 58° 302° (WNW) 09:44:30 435.800 - 435.900 CW/SSB, 435.910 FM
AO-7 24 Jul 09:33:03 09:40:34 39° 328° (NNW) 09:48:02 29.400 - 29.500 MHz
Uosat F 24 Jul 09:34:16 09:37:09 16° 330° (NNW) 09:40:02 435.120 FM
KITSAT 1 24 Jul 09:47:25 09:55:26 68° 137° (SE) 10:03:28 435.175 FM
SO-67 24 Jul 09:48:40 09:52:06 54° 293° (WNW) 09:55:31 435.3500 MHz FM
Sapphire 24 Jul 09:55:39 10:01:08 88° 34° (NE) 10:06:35 437.095 MHz 1200 baud AX-25 AFSK
Oscar 19 24 Jul 10:00:18 10:01:38 11° 16° (NNE) 10:02:57 437.125 CW, 437.150 USB
Oscar 11 24 Jul 10:03:27 10:05:39 14° 81° (E) 10:07:51 145.825 FM, Beacon 2401.500 USB
Saudisat 1A 24 Jul 10:04:41 10:07:48 19° 122° (ESE) 10:10:55 436.775 MHz
HO-68 24 Jul 10:15:45 10:22:23 38° 94° (E) 10:28:58 435.675 MHz FM
Oscar 16 24 Jul 10:26:23 10:28:35 13° 23° (NNE) 10:30:47 437.025 USB, Beacon 2401.1428
PCSat 24 Jul 10:29:44 10:35:09 69° 222° (SW) 10:40:33 145.825 MHz
TMSAT-1 24 Jul 10:29:58 10:30:26 10° 360° (N) 10:30:53 436.925 FM
Hamsat 24 Jul 10:33:23 10:35:53 15° 318° (NW) 10:38:22 145.90 MHz
ITAMSAT 1 24 Jul 10:37:21 10:39:06 12° 16° (NNE) 10:40:51 435.822 SSB
JAS-1B 24 Jul 10:45:55 10:53:35 28° 9° (N) 11:01:18 435.800 - 435.900 CW/SSB
UKube-1 24 Jul 10:47:39 10:51:48 39° 98° (E) 10:55:54 145.840 MHz, 145.915 MHz
Gurwin Techsat 1B 24 Jul 10:49:37 10:50:45 11° 8° (N) 10:51:53 435.225 FM
AO-27 24 Jul 10:54:23 10:56:37 13° 21° (NNE) 10:58:51 436.795 MHz FM
AO-Echo 24 Jul 10:56:09 10:58:22 13° 22° (NNE) 11:00:34 ?
Uribyol 2 24 Jul 10:57:14 10:59:31 13° 22° (NNE) 11:01:48 436.500 FM
JAS-2 24 Jul 11:17:06 11:22:33 26° 327° (NNW) 11:27:31 435.800 - 435.900 CW/SSB, 435.910 FM
SO-67 24 Jul 11:22:50 11:24:32 13° 314° (NW) 11:26:14 435.3500 MHz FM
AO-7 24 Jul 11:24:52 11:31:34 28° 355° (N) 11:38:16 29.400 - 29.500 MHz
Oscar 19 24 Jul 11:35:37 11:39:22 21° 39° (NE) 11:43:08 437.125 CW, 437.150 USB
Oscar 11 24 Jul 11:38:29 11:42:47 60° 103° (ESE) 11:47:05 145.825 FM, Beacon 2401.500 USB
Sapphire 24 Jul 11:39:17 11:44:13 36° 236° (WSW) 11:49:07 437.095 MHz 1200 baud AX-25 AFSK
Saudisat 1A 24 Jul 11:42:20 11:46:41 57° 144° (SE) 11:51:03 436.775 MHz
KITSAT 1 24 Jul 11:42:50 11:50:58 75° 343° (NNW) 11:59:07 435.175 FM
FUNcube-1 24 Jul 11:45:40 11:49:30 34° 96° (E) 11:53:19 145.950 - 145.970 MHz USB
Oscar 16 24 Jul 12:02:16 12:06:33 27° 46° (NE) 12:10:50 437.025 USB, Beacon 2401.1428
HO-68 24 Jul 12:03:35 12:10:47 79° 298° (WNW) 12:17:56 435.675 MHz FM
TMSAT-1 24 Jul 12:05:48 12:08:25 14° 24° (NNE) 12:11:01 436.925 FM
ITAMSAT 1 24 Jul 12:13:04 12:17:01 22° 40° (NE) 12:20:58 435.822 SSB
PCSat 24 Jul 12:13:36 12:17:51 24° 245° (WSW) 12:22:06 145.825 MHz
UKube-1 24 Jul 12:23:55 12:28:09 48° 300° (WNW) 12:32:22 145.840 MHz, 145.915 MHz
Gurwin Techsat 1B 24 Jul 12:25:30 12:28:56 18° 33° (NNE) 12:32:22 435.225 FM
AO-27 24 Jul 12:30:24 12:34:41 26° 44° (NE) 12:38:57 436.795 MHz FM
AO-Echo 24 Jul 12:31:19 12:35:39 26° 45° (NE) 12:39:59 ?
Uribyol 2 24 Jul 12:33:16 12:37:35 27° 45° (NE) 12:41:54 436.500 FM
JAS-1B 24 Jul 12:33:20 12:41:50 39° 35° (NE) 12:50:40 435.800 - 435.900 CW/SSB
Uosat F 24 Jul 12:49:23 12:51:01 12° 18° (NNE) 12:52:38 435.120 FM
JAS-2 24 Jul 13:01:24 13:05:36 17° 353° (N) 13:09:34 435.800 - 435.900 CW/SSB, 435.910 FM
Oscar 19 24 Jul 13:12:54 13:17:55 58° 62° (ENE) 13:22:59 437.125 CW, 437.150 USB
Oscar 11 24 Jul 13:14:57 13:18:50 33° 304° (NW) 13:22:43 145.825 FM, Beacon 2401.500 USB
AO-7 24 Jul 13:15:18 13:22:24 33° 22° (NNE) 13:29:30 29.400 - 29.500 MHz
Saudisat 1A 24 Jul 13:21:51 13:26:18 73° 347° (NNW) 13:30:45 436.775 MHz
FUNcube-1 24 Jul 13:22:04 13:26:08 50° 297° (WNW) 13:30:10 145.950 - 145.970 MHz USB
Sapphire 24 Jul 13:25:44 13:26:12 10° 259° (WSW) 13:26:40 437.095 MHz 1200 baud AX-25 AFSK
KITSAT 1 24 Jul 13:38:59 13:47:07 72° 11° (N) 13:55:14 435.175 FM
Oscar 16 24 Jul 13:40:17 13:45:25 84° 69° (ENE) 13:50:36 437.025 USB, Beacon 2401.1428
TMSAT-1 24 Jul 13:42:25 13:46:58 30° 48° (NE) 13:51:31 436.925 FM
ITAMSAT 1 24 Jul 13:50:37 13:55:46 62° 62° (ENE) 14:00:56 435.822 SSB
HO-68 24 Jul 13:51:30 13:57:50 35° 322° (NW) 14:04:07 435.675 MHz FM
UKube-1 24 Jul 14:00:53 14:03:33 16° 321° (NW) 14:06:13 145.840 MHz, 145.915 MHz
Gurwin Techsat 1B 24 Jul 14:02:50 14:07:50 43° 56° (NE) 14:12:52 435.225 FM
RS-15 24 Jul 14:05:16 14:13:01 23° 100° (E) 14:20:43 29.354 - 29.394 USB, Beacon 29.352 USB
AO-27 24 Jul 14:08:24 14:13:38 77° 66° (ENE) 14:18:53 436.795 MHz FM
AO-Echo 24 Jul 14:08:30 14:13:49 76° 67° (ENE) 14:19:10 ?
Uribyol 2 24 Jul 14:11:20 14:16:33 82° 68° (ENE) 14:21:47 436.500 FM
JAS-1B 24 Jul 14:21:57 14:31:10 74° 60° (ENE) 14:41:06 435.800 - 435.900 CW/SSB
Uosat F 24 Jul 14:24:24 14:28:18 23° 42° (NE) 14:32:13 435.120 FM
JAS-2 24 Jul 14:43:40 14:48:27 19° 18° (NNE) 14:52:57 435.800 - 435.900 CW/SSB, 435.910 FM
Oscar 11 24 Jul 14:52:22 14:53:58 12° 326° (NNW) 14:55:34 145.825 FM, Beacon 2401.500 USB
Oscar 19 24 Jul 14:52:46 14:57:33 39° 264° (W) 15:02:23 437.125 CW, 437.150 USB
FUNcube-1 24 Jul 14:59:20 15:01:46 15° 319° (NW) 15:04:11 145.950 - 145.970 MHz USB
Saudisat 1A 24 Jul 15:01:46 15:06:13 70° 10° (N) 15:10:39 436.775 MHz
AO-7 24 Jul 15:05:49 15:13:56 57° 48° (NE) 15:22:04 29.400 - 29.500 MHz
TMSAT-1 24 Jul 15:21:07 15:26:27 90° 247° (WSW) 15:31:49 436.925 FM
Oscar 16 24 Jul 15:21:08 15:25:25 26° 270° (W) 15:29:44 437.025 USB, Beacon 2401.1428
SO-50 24 Jul 15:21:32 15:25:19 27° 127° (SE) 15:29:11 436.795 FM
ITAMSAT 1 24 Jul 15:30:45 15:35:36 38° 264° (W) 15:40:28 435.822 SSB
KITSAT 1 24 Jul 15:34:45 15:42:52 78° 218° (SW) 15:50:56 435.175 FM
HO-68 24 Jul 15:38:43 15:43:53 22° 348° (NNW) 15:49:02 435.675 MHz FM
Gurwin Techsat 1B 24 Jul 15:42:32 15:47:47 57° 258° (WSW) 15:53:04 435.225 FM
AO-Echo 24 Jul 15:48:23 15:53:06 31° 269° (W) 15:57:50 ?
AO-27 24 Jul 15:49:09 15:53:43 30° 268° (W) 15:58:17 436.795 MHz FM
Uribyol 2 24 Jul 15:52:12 15:56:38 28° 269° (W) 16:01:05 436.500 FM
Uosat F 24 Jul 16:01:25 16:06:26 67° 64° (ENE) 16:11:28 435.120 FM
UOSAT-12 24 Jul 16:12:19 16:14:10 12° 113° (ESE) 16:16:02 437.025 FM, 437.400 FM
RS-15 24 Jul 16:12:21 16:22:54 56° 128° (SE) 16:33:25 29.354 - 29.394 USB, Beacon 29.352 USB
JAS-1B 24 Jul 16:13:16 16:22:11 52° 266° (W) 16:31:52 435.800 - 435.900 CW/SSB
JAS-2 24 Jul 16:25:15 16:31:48 33° 42° (NE) 16:37:52 435.800 - 435.900 CW/SSB, 435.910 FM
OPAL 24 Jul 16:25:32 16:28:27 15° 85° (E) 16:31:22 ?
Saudisat 1A 24 Jul 16:41:29 16:45:54 64° 213° (SSW) 16:50:16 436.775 MHz
Hamsat 24 Jul 16:49:44 16:53:07 24° 51° (NE) 16:56:32 145.90 MHz
AO-7 24 Jul 16:58:28 17:06:47 65° 252° (WSW) 17:15:09 29.400 - 29.500 MHz
SO-50 24 Jul 17:00:50 17:05:23 74° 150° (SSE) 17:10:03 436.795 FM
TMSAT-1 24 Jul 17:02:45 17:07:06 25° 272° (W) 17:11:29 436.925 FM
HO-68 24 Jul 17:24:21 17:29:33 22° 14° (NNE) 17:34:45 435.675 MHz FM
Gurwin Techsat 1B 24 Jul 17:25:47 17:28:57 16° 280° (W) 17:32:08 435.225 FM
SO-67 24 Jul 17:28:49 17:30:11 12° 44° (NE) 17:31:33 435.3500 MHz FM
KITSAT 1 24 Jul 17:30:20 17:37:26 35° 243° (WSW) 17:44:30 435.175 FM
Uosat F 24 Jul 17:41:04 17:45:38 33° 266° (W) 17:50:13 435.120 FM
UOSAT-12 24 Jul 17:48:52 17:53:14 40° 135° (SE) 17:57:40 437.025 FM, 437.400 FM
OPAL 24 Jul 18:03:28 18:08:26 58° 107° (ESE) 18:13:26 ?
JAS-2 24 Jul 18:08:24 18:16:08 75° 65° (ENE) 18:23:13 435.800 - 435.900 CW/SSB, 435.910 FM
JAS-1B 24 Jul 18:08:36 18:15:16 21° 293° (WNW) 18:22:16 435.800 - 435.900 CW/SSB
Saudisat 1A 24 Jul 18:21:29 18:24:53 22° 235° (SW) 18:28:15 436.775 MHz
RS-15 24 Jul 18:23:47 18:34:48 88° 338° (NNW) 18:45:53 29.354 - 29.394 USB, Beacon 29.352 USB
Hamsat 24 Jul 18:24:31 18:28:43 85° 253° (WSW) 18:32:59 145.90 MHz
STRAND 1 24 Jul 18:41:10 18:43:00 12° 76° (ENE) 18:44:49 ?
SO-50 24 Jul 18:41:30 18:46:06 69° 353° (N) 18:50:49 436.795 FM
UKube-1 24 Jul 18:45:16 18:47:01 12° 31° (NNE) 18:48:46 145.840 MHz, 145.915 MHz
AO-7 24 Jul 18:54:52 19:01:20 24° 278° (W) 19:07:51 29.400 - 29.500 MHz
SO-67 24 Jul 18:59:11 19:02:32 47° 65° (ENE) 19:05:55 435.3500 MHz FM
HO-68 24 Jul 19:09:15 19:15:39 37° 39° (NE) 19:22:02 435.675 MHz FM
UOSAT-12 24 Jul 19:28:27 19:33:10 88° 337° (NNW) 19:37:57 437.025 FM, 437.400 FM
KITSAT 1 24 Jul 19:28:37 19:30:25 11° 268° (W) 19:32:13 435.175 FM
Oscar 11 24 Jul 19:35:03 19:37:11 14° 37° (NE) 19:39:18 145.825 FM, Beacon 2401.500 USB
OPAL 24 Jul 19:42:35 19:47:17 42° 308° (NW) 19:52:02 ?
JAS-2 24 Jul 19:54:21 20:01:39 43° 267° (W) 20:08:27 435.800 - 435.900 CW/SSB, 435.910 FM
Hamsat 24 Jul 20:02:26 20:05:23 18° 274° (W) 20:08:21 145.90 MHz
UKube-1 24 Jul 20:18:14 20:22:09 32° 54° (NE) 20:26:04 145.840 MHz, 145.915 MHz
STRAND 1 24 Jul 20:18:38 20:23:35 45° 99° (E) 20:28:29 ?
SO-50 24 Jul 20:22:20 20:27:00 79° 17° (NNE) 20:31:46 436.795 FM
SO-67 24 Jul 20:32:46 20:35:49 27° 266° (W) 20:38:52 435.3500 MHz FM
RS-15 24 Jul 20:36:47 20:47:47 81° 9° (N) 20:58:58 29.354 - 29.394 USB, Beacon 29.352 USB
HO-68 24 Jul 20:55:34 21:02:45 83° 63° (ENE) 21:09:58 435.675 MHz FM
Oscar 11 24 Jul 21:08:24 21:12:26 40° 59° (ENE) 21:16:29 145.825 FM, Beacon 2401.500 USB
UOSAT-12 24 Jul 21:08:53 21:13:37 68° 1° (N) 21:18:22 437.025 FM, 437.400 FM
FUNcube-1 24 Jul 21:17:20 21:20:54 26° 52° (NE) 21:24:25 145.950 - 145.970 MHz USB
OPAL 24 Jul 21:21:55 21:25:12 18° 331° (NNW) 21:28:31 ?
JAS-2 24 Jul 21:44:46 21:48:39 15° 290° (WNW) 21:52:24 435.800 - 435.900 CW/SSB, 435.910 FM
UKube-1 24 Jul 21:53:50 21:58:11 63° 255° (WSW) 22:02:34 145.840 MHz, 145.915 MHz
STRAND 1 24 Jul 21:57:57 22:02:56 51° 301° (WNW) 22:07:53 ?
SO-50 24 Jul 22:02:59 22:07:30 50° 220° (SW) 22:12:07 436.795 FM
Oscar 11 24 Jul 22:44:28 22:48:38 47° 260° (W) 22:52:50 145.825 FM, Beacon 2401.500 USB
HO-68 24 Jul 22:44:43 22:51:14 36° 267° (W) 22:57:47 435.675 MHz FM
UOSAT-12 24 Jul 22:49:16 22:54:02 86° 205° (SSW) 22:58:48 437.025 FM, 437.400 FM
RS-15 24 Jul 22:49:26 23:00:18 73° 220° (SW) 23:11:26 29.354 - 29.394 USB, Beacon 29.352 USB
FUNcube-1 24 Jul 22:52:40 22:57:00 79° 253° (WSW) 23:01:16 145.950 - 145.970 MHz USB
OPAL 24 Jul 23:00:48 23:02:30 12° 355° (N) 23:04:11 ?
MaSat-1 24 Jul 23:15:33 23:19:06 24° 111° (ESE) 23:23:02 437.345 MHz
UKube-1 24 Jul 23:32:49 23:35:18 15° 277° (W) 23:37:47 145.840 MHz, 145.915 MHz
STRAND 1 24 Jul 23:37:40 23:41:15 20° 323° (NW) 23:44:49 ?
SO-50 24 Jul 23:44:17 23:47:14 17° 241° (WSW) 23:50:13 436.795 FM
Oscar 11 25 Jul 00:24:57 00:25:57 11° 282° (WNW) 00:26:57 145.825 FM, Beacon 2401.500 USB
UOSAT-12 25 Jul 00:29:34 00:33:54 36° 227° (SW) 00:38:12 437.025 FM, 437.400 FM
FUNcube-1 25 Jul 00:31:14 00:34:07 17° 274° (W) 00:37:00 145.950 - 145.970 MHz USB
OPAL 25 Jul 00:37:10 00:39:39 14° 19° (NNE) 00:42:08 ?
HO-68 25 Jul 00:39:40 00:41:23 11° 292° (WNW) 00:43:05 435.675 MHz FM
MaSat-1 25 Jul 00:51:19 00:55:50 80° 135° (SE) 01:00:58 437.345 MHz
RS-15 25 Jul 01:01:45 01:11:07 35° 248° (WSW) 01:20:44 29.354 - 29.394 USB, Beacon 29.352 USB
STRAND 1 25 Jul 01:17:39 01:18:47 11° 347° (NNW) 01:19:54 ?
Oscar 16 25 Jul 01:41:45 01:44:36 15° 80° (E) 01:47:27 437.025 USB, Beacon 2401.1428
JAS-1B 25 Jul 01:55:30 02:01:53 19° 64° (ENE) 02:07:57 435.800 - 435.900 CW/SSB
AO-Echo 25 Jul 02:06:10 02:08:28 13° 76° (ENE) 02:10:44 ?
AO-27 25 Jul 02:11:34 02:14:00 13° 78° (ENE) 02:16:26 436.795 MHz FM
UOSAT-12 25 Jul 02:11:56 02:12:52 11° 249° (WSW) 02:13:48 437.025 FM, 437.400 FM
OPAL 25 Jul 02:13:05 02:17:14 28° 42° (NE) 02:21:25 ?
Uribyol 2 25 Jul 02:14:02 02:16:42 14° 79° (ENE) 02:19:21 436.500 FM
MaSat-1 25 Jul 02:29:02 02:33:37 47° 339° (NNW) 02:38:41 437.345 MHz
Sapphire 25 Jul 02:32:26 02:36:25 21° 113° (ESE) 02:40:26 437.095 MHz 1200 baud AX-25 AFSK
Oscar 19 25 Jul 02:52:30 02:57:17 37° 95° (E) 03:02:04 437.125 CW, 437.150 USB
STRAND 1 25 Jul 02:55:00 02:56:00 11° 12° (NNE) 02:56:59 ?
PCSat 25 Jul 03:05:11 03:09:57 33° 121° (ESE) 03:14:45 145.825 MHz
RS-15 25 Jul 03:18:09 03:19:37 10° 276° (W) 03:21:05 29.354 - 29.394 USB, Beacon 29.352 USB
Oscar 16 25 Jul 03:20:04 03:25:09 55° 102° (ESE) 03:30:13 437.025 USB, Beacon 2401.1428
TMSAT-1 25 Jul 03:26:21 03:29:55 18° 82° (E) 03:33:27 436.925 FM
ITAMSAT 1 25 Jul 03:31:45 03:36:38 38° 96° (E) 03:41:27 435.822 SSB
AO-Echo 25 Jul 03:43:31 03:48:37 48° 99° (E) 03:53:32 ?
JAS-1B 25 Jul 03:45:43 03:55:14 47° 91° (E) 04:03:54 435.800 - 435.900 CW/SSB
Gurwin Techsat 1B 25 Jul 03:47:26 03:52:02 28° 90° (E) 03:56:36 435.225 FM
AO-27 25 Jul 03:49:45 03:54:51 49° 100° (E) 03:59:53 436.795 MHz FM
OPAL 25 Jul 03:50:42 03:55:40 83° 65° (ENE) 04:00:40 ?
Uribyol 2 25 Jul 03:52:21 03:57:26 52° 101° (ESE) 04:02:29 436.500 FM
MaSat-1 25 Jul 04:07:18 04:11:56 38° 3° (N) 04:16:54 437.345 MHz
Sapphire 25 Jul 04:13:41 04:19:02 63° 136° (SE) 04:24:25 437.095 MHz 1200 baud AX-25 AFSK
STRAND 1 25 Jul 04:30:00 04:33:30 19° 36° (NE) 04:37:00 ?
Oscar 19 25 Jul 04:31:52 04:36:58 62° 297° (WNW) 04:42:03 437.125 CW, 437.150 USB
AO-7 25 Jul 04:47:24 04:54:09 26° 84° (E) 05:00:50 29.400 - 29.500 MHz
PCSat 25 Jul 04:47:29 04:52:56 86° 145° (SE) 04:58:25 145.825 MHz
ISS 25 Jul 04:55:51 04:57:34 13° 174° (S) 04:59:17 145.800 FM
Oscar 16 25 Jul 04:59:38 05:04:30 43° 304° (NW) 05:09:22 437.025 USB, Beacon 2401.1428
TMSAT-1 25 Jul 05:05:36 05:10:54 65° 104° (ESE) 05:16:11 436.925 FM
ITAMSAT 1 25 Jul 05:11:18 05:16:26 60° 298° (WNW) 05:21:32 435.822 SSB
AO-Echo 25 Jul 05:22:25 05:27:29 49° 301° (WNW) 05:32:24 ?
Gurwin Techsat 1B 25 Jul 05:27:15 05:32:37 81° 292° (WNW) 05:37:56 435.225 FM
AO-27 25 Jul 05:29:27 05:34:27 48° 302° (WNW) 05:39:26 436.795 MHz FM
OPAL 25 Jul 05:31:00 05:35:09 26° 266° (W) 05:39:21 ?
Uribyol 2 25 Jul 05:32:01 05:36:57 45° 303° (WNW) 05:41:51 436.500 FM
JAS-1B 25 Jul 05:36:30 05:46:28 79° 297° (WNW) 05:55:35 435.800 - 435.900 CW/SSB
Uosat F 25 Jul 05:36:47 05:41:30 38° 96° (E) 05:46:11 435.120 FM
MaSat-1 25 Jul 05:45:09 05:50:11 53° 26° (NNE) 05:55:27 437.345 MHz
Sapphire 25 Jul 05:57:11 06:02:36 64° 340° (NNW) 06:08:02 437.095 MHz 1200 baud AX-25 AFSK
Hamsat 25 Jul 06:01:37 06:02:14 10° 77° (ENE) 06:02:51 145.90 MHz
STRAND 1 25 Jul 06:06:50 06:11:46 49° 58° (ENE) 06:16:44 ?
Oscar 19 25 Jul 06:11:42 06:15:34 22° 320° (NW) 06:19:26 437.125 CW, 437.150 USB
KITSAT 1 25 Jul 06:21:30 06:23:49 11° 93° (E) 06:26:09 435.175 FM
PCSat 25 Jul 06:31:23 06:36:45 56° 349° (N) 06:42:08 145.825 MHz
ISS 25 Jul 06:32:01 06:33:18 12° 194° (SSW) 06:34:34 145.800 FM
Oscar 16 25 Jul 06:39:34 06:42:50 17° 327° (NNW) 06:46:07 437.025 USB, Beacon 2401.1428
AO-7 25 Jul 06:40:10 06:48:34 70° 109° (ESE) 06:56:52 29.400 - 29.500 MHz
TMSAT-1 25 Jul 06:45:48 06:50:42 39° 306° (NW) 06:55:34 436.925 FM
ITAMSAT 1 25 Jul 06:51:16 06:55:10 22° 321° (NW) 06:59:03 435.822 SSB
JAS-2 25 Jul 06:52:02 06:57:30 26° 83° (E) 07:02:26 435.800 - 435.900 CW/SSB, 435.910 FM
AO-Echo 25 Jul 07:01:42 07:05:18 19° 324° (NW) 07:08:50 ?
Gurwin Techsat 1B 25 Jul 07:07:38 07:12:03 27° 315° (NW) 07:16:28 435.225 FM
AO-27 25 Jul 07:09:28 07:13:01 19° 325° (NW) 07:16:34 436.795 MHz FM
Uribyol 2 25 Jul 07:12:02 07:15:27 18° 326° (NW) 07:18:51 436.500 FM
Uosat F 25 Jul 07:15:36 07:20:35 59° 298° (WNW) 07:25:31 435.120 FM
MaSat-1 25 Jul 07:22:39 07:27:52 69° 229° (SW) 07:33:10 437.345 MHz
JAS-1B 25 Jul 07:26:59 07:35:58 42° 322° (NW) 07:44:28 435.800 - 435.900 CW/SSB
Hamsat 25 Jul 07:35:12 07:39:19 45° 99° (E) 07:43:28 145.90 MHz
Sapphire 25 Jul 07:41:21 07:46:42 53° 5° (N) 07:52:02 437.095 MHz 1200 baud AX-25 AFSK
STRAND 1 25 Jul 07:46:05 07:51:04 48° 260° (W) 07:56:05 ?
SO-67 25 Jul 07:46:13 07:48:11 14° 85° (E) 07:50:10 435.3500 MHz FM
Oscar 19 25 Jul 07:51:51 07:53:20 11° 343° (NNW) 07:54:50 437.125 CW, 437.150 USB
